CST,Max TemperatureF,Mean TemperatureF,Min TemperatureF,Max Dew PointF,MeanDew PointF,Min DewpointF,Max Humidity, Mean Humidity, Min Humidity, Max Sea Level PressureIn, Mean Sea Level PressureIn, Min Sea Level PressureIn, Max VisibilityMiles, Mean VisibilityMiles, Min VisibilityMiles, Max Wind SpeedMPH, Mean Wind SpeedMPH, Max Gust SpeedMPH,PrecipitationIn, CloudCover, Events, WindDirDegrees
2012-12-1,54,42,29,47,37,28,100,89,77,30.00,29.83,29.71,5,3,0,21,11,24,0.00,4,Fog,201
2012-12-2,59,41,23,43,35,23,100,74,47,30.02,29.91,29.79,10,5,1,22,11,26,0.00,1,,188
2012-12-3,58,46,33,52,41,23,100,75,50,30.03,29.74,29.58,10,5,0,30,16,35,0.00,4,Fog,216
2012-12-4,44,31,18,25,20,12,75,60,45,30.41,30.23,30.03,10,10,10,16,9,18,0.00,0,,325
2012-12-5,45,30,15,31,20,10,80,65,49,30.41,30.15,29.86,10,10,10,32,17,38,0.00,2,,153
2012-12-6,47,40,32,36,32,23,85,67,49,30.03,29.92,29.82,10,10,7,25,11,33,0.14,6,Rain,302
2012-12-7,32,29,26,27,23,22,92,79,66,30.04,30.01,29.97,10,8,2,20,9,22,T,7,Snow,33
2012-12-8,32,28,24,31,27,23,100,89,78,30.08,29.98,29.88,10,4,0,21,9,25,T,7,Fog-Snow,116
2012-12-9,33,21,9,32,23,5,96,86,76,30.03,29.87,29.80,10,5,1,35,19,45,0.07,8,Snow,202
2012-12-10,20,11,2,11,4,-5,84,73,61,30.06,29.99,29.88,10,10,8,26,11,31,0.00,4,,280
2012-12-11,33,24,15,25,19,11,92,80,67,29.99,29.92,29.78,10,10,7,20,10,25,T,4,Snow,247
2012-12-12,49,34,18,23,19,15,91,63,34,29.97,29.91,29.86,10,10,10,31,17,40,0.00,0,,188
2012-12-13,35,27,19,23,19,16,92,75,58,30.16,30.03,29.90,10,8,5,20,8,24,0.00,0,,307
2012-12-14,52,34,16,32,25,13,92,67,41,30.14,29.91,29.69,10,9,5,22,10,26,0.00,2,,145
2012-12-15,43,37,30,41,36,28,100,84,67,29.65,29.55,29.46,10,5,1,22,12,25,0.47,8,Rain-Snow,250
2012-12-16,30,23,16,27,18,12,100,89,77,29.86,29.78,29.64,10,7,1,21,13,25,0.00,5,,333
2012-12-17,28,24,19,27,21,18,100,92,84,29.83,29.74,29.64,8,3,0,10,5,15,T,8,Fog-Snow,68
2012-12-18,32,29,25,28,26,21,100,93,85,29.88,29.65,29.51,8,3,0,18,8,23,T,8,Fog-Snow,63
2012-12-19,32,24,15,27,21,16,96,90,84,30.01,29.93,29.83,7,3,0,26,9,30,0.10,4,Fog-Snow,336
2012-12-20,21,14,7,18,13,3,92,84,76,30.18,29.94,29.84,10,2,0,35,25,44,T,5,Fog-Snow,333
2012-12-21,18,11,4,9,5,-1,92,80,67,30.36,30.29,30.19,10,10,9,21,9,23,0.00,0,,285
2012-12-22,26,18,9,18,11,5,88,81,73,30.21,30.07,29.99,10,9,4,17,9,22,0.00,0,,244
2012-12-23,16,12,8,11,9,5,92,83,73,30.13,30.06,29.97,9,4,1,18,10,22,T,6,Snow,16
2012-12-24,14,6,-3,10,5,-8,92,82,72,30.38,30.11,29.95,10,5,1,23,14,28,T,6,Snow,338
2012-12-25,7,1,-6,1,-5,-10,87,82,76,30.56,30.49,30.38,10,10,10,17,11,21,0.00,0,,338
2012-12-26,12,5,-2,9,1,-6,84,75,66,30.45,30.33,30.19,10,10,6,12,7,13,0.00,3,,13
2012-12-27,20,10,0,18,12,-2,92,84,76,30.27,30.13,30.04,10,4,0,14,7,16,T,7,Fog-Snow,73
2012-12-28,19,12,5,16,13,3,92,86,80,30.11,30.03,29.95,9,3,1,16,10,20,T,8,Snow,11
2012-12-29,14,8,2,10,6,-1,96,86,76,30.25,30.15,30.03,9,6,2,15,9,18,T,5,Snow,271
2012-12-30,26,14,1,20,9,-2,95,85,74,30.25,30.11,29.96,10,9,6,20,11,22,0.00,0,,211
2012-12-31,19,7,-6,14,4,-10,84,75,66,30.34,30.21,30.02,10,10,5,31,12,37,0.00,2,,334